| time (UTC) | temp F | wind direction | speed MPH | gust MPH | rain 1hr in | rain 24hr in | rain mn in | humidity % | barometer mb |
| 20260906112907 | 58 | 337 | 4.0 | 12.0 | 0.07 | 0.66 | 0.66 | 91 | 1000.4 |
| 20260906112407 | 58 | 347 | 4.0 | 12.0 | 0.08 | 0.66 | 0.66 | 91 | 1000.4 |
| 20260906111907 | 58 | 354 | 3.0 | 10.0 | 0.07 | 0.65 | 0.65 | 91 | 1000.5 |
| 20260906111407 | 58 | 347 | 5.0 | 13.0 | 0.07 | 0.65 | 0.65 | 91 | 1000.5 |
| 20260906110906 | 57 | 347 | 4.0 | 12.0 | 0.06 | 0.65 | 0.65 | 91 | 1000.7 |
| 20260906104907 | 58 | 351 | 7.0 | 16.0 | 0.07 | 0.64 | 0.64 | 91 | 1001.0 |
| 20260906104407 | 58 | 348 | 9.0 | 17.0 | 0.06 | 0.63 | 0.63 | 91 | 1001.1 |
| 20260906103407 | 58 | 353 | 10.0 | 17.0 | 0.04 | 0.60 | 0.60 | 91 | 1001.1 |
| 20260906102907 | 58 | 354 | 10.0 | 17.0 | 0.03 | 0.59 | 0.59 | 91 | 1001.2 |
| 20260906102406 | 58 | 344 | 7.0 | 20.0 | 0.03 | 0.58 | 0.58 | 91 | 1001.2 |
| 20260906101907 | 58 | 345 | 8.0 | 20.0 | 0.03 | 0.58 | 0.58 | 91 | 1001.3 |
| 20260906101406 | 58 | 352 | 7.0 | 15.0 | 0.03 | 0.58 | 0.58 | 91 | 1001.3 |
| 20260906100906 | 58 | 352 | 7.0 | 20.0 | 0.03 | 0.58 | 0.58 | 91 | 1001.3 |
| 20260906095907 | 58 | 342 | 7.0 | 18.0 | 0.03 | 0.57 | 0.57 | 91 | 1001.3 |
| 20260906095407 | 58 | 350 | 7.0 | 16.0 | 0.03 | 0.57 | 0.57 | 91 | 1001.3 |
| 20260906094907 | 58 | 353 | 7.0 | 15.0 | 0.03 | 0.57 | 0.57 | 91 | 1001.4 |
| 20260906094407 | 58 | 324 | 8.0 | 17.0 | 0.03 | 0.57 | 0.57 | 91 | 1001.5 |
| 20260906093911 | 58 | 342 | 6.0 | 15.0 | 0.02 | 0.56 | 0.56 | 91 | 1001.6 |
| 20260906092907 | 58 | 350 | 8.0 | 21.0 | 0.03 | 0.56 | 0.56 | 91 | 1001.6 |
| 20260906092407 | 58 | 339 | 7.0 | 20.0 | 0.03 | 0.55 | 0.55 | 91 | 1001.6 |
| 20260906091907 | 58 | 338 | 6.0 | 14.0 | 0.03 | 0.55 | 0.55 | 91 | 1001.7 |
| 20260906091407 | 58 | 353 | 10.0 | 17.0 | 0.04 | 0.55 | 0.55 | 91 | 1001.6 |
| 20260906090908 | 58 | 340 | 10.0 | 20.0 | 0.04 | 0.55 | 0.55 | 91 | 1001.6 |
| 20260906090406 | 58 | 342 | 11.0 | 20.0 | 0.03 | 0.54 | 0.54 | 91 | 1001.6 |
| 20260906085907 | 58 | 332 | 11.0 | 23.0 | 0.03 | 0.54 | 0.54 | 91 | 1001.6 |
| 20260906084907 | 58 | 346 | 13.0 | 22.0 | 0.02 | 0.54 | 0.54 | 91 | 1001.6 |
| 20260906084407 | 58 | 345 | 12.0 | 28.0 | 0.03 | 0.54 | 0.54 | 91 | 1001.5 |
| 20260906083908 | 59 | 337 | 12.0 | 24.0 | 0.03 | 0.54 | 0.54 | 91 | 1001.5 |
| 20260906083407 | 59 | 341 | 11.0 | 26.0 | 0.02 | 0.53 | 0.53 | 91 | 1001.4 |
| 20260906082907 | 59 | 353 | 13.0 | 24.0 | 0.03 | 0.53 | 0.53 | 91 | 1001.4 |
| 20260906082407 | 59 | 342 | 13.0 | 26.0 | 0.04 | 0.52 | 0.52 | 91 | 1001.4 |
| 20260906081908 | 59 | 348 | 13.0 | 24.0 | 0.05 | 0.52 | 0.52 | 91 | 1001.4 |
| 20260906081407 | 59 | 341 | 11.0 | 24.0 | 0.05 | 0.51 | 0.51 | 91 | 1001.5 |
| 20260906080907 | 59 | 352 | 12.0 | 28.0 | 0.05 | 0.51 | 0.51 | 91 | 1001.5 |
| 20260906080407 | 59 | 342 | 15.0 | 25.0 | 0.05 | 0.51 | 0.51 | 91 | 1001.6 |
| 20260906075907 | 59 | 343 | 13.0 | 22.0 | 0.06 | 0.51 | 0.51 | 91 | 1001.5 |
| 20260906075408 | 59 | 344 | 13.0 | 26.0 | 0.06 | 0.51 | 0.51 | 91 | 1001.5 |
| 20260906074907 | 59 | 348 | 13.0 | 26.0 | 0.06 | 0.51 | 0.51 | 91 | 1001.6 |
| 20260906074408 | 59 | 356 | 16.0 | 28.0 | 0.06 | 0.50 | 0.50 | 91 | 1001.6 |
| 20260906073907 | 59 | 345 | 14.0 | 24.0 | 0.08 | 0.50 | 0.50 | 91 | 1001.7 |
| 20260906072907 | 59 | 346 | 15.0 | 26.0 | 0.08 | 0.50 | 0.50 | 91 | 1001.7 |
| 20260906072407 | 59 | 348 | 15.0 | 25.0 | 0.07 | 0.48 | 0.48 | 91 | 1001.8 |
| 20260906071907 | 59 | 348 | 14.0 | 30.0 | 0.06 | 0.47 | 0.47 | 91 | 1001.8 |
| 20260906071407 | 59 | 346 | 13.0 | 28.0 | 0.06 | 0.46 | 0.46 | 91 | 1001.8 |
| 20260906070407 | 59 | 357 | 18.0 | 30.0 | 0.06 | 0.46 | 0.46 | 91 | 1002.0 |
| 20260906065907 | 59 | 341 | 14.0 | 28.0 | 0.05 | 0.46 | 0.46 | 91 | 1001.9 |
| 20260906065407 | 59 | 350 | 16.0 | 29.0 | 0.04 | 0.45 | 0.45 | 91 | 1001.8 |
| 20260906064906 | 59 | 337 | 17.0 | 28.0 | 0.04 | 0.45 | 0.45 | 91 | 1001.9 |
| 20260906064406 | 59 | 347 | 17.0 | 29.0 | 0.03 | 0.44 | 0.44 | 91 | 1001.8 |
| 20260906063907 | 59 | 349 | 14.0 | 28.0 | 0.02 | 0.43 | 0.43 | 91 | 1002.0 |
| 20260906063407 | 59 | 346 | 19.0 | 38.0 | 0.01 | 0.42 | 0.42 | 91 | 1001.9 |
| 20260906062407 | 59 | 353 | 18.0 | 31.0 | 0.00 | 0.41 | 0.41 | 90 | 1001.9 |
| 20260906061408 | 59 | 344 | 17.0 | 35.0 | 0.00 | 0.41 | 0.41 | 91 | 1001.8 |
| 20260906060906 | 59 | 347 | 19.0 | 26.0 | 0.00 | 0.41 | 0.41 | 91 | 1002.0 |
| 20260906060407 | 59 | 349 | 16.0 | 29.0 | 0.00 | 0.41 | 0.41 | 91 | 1002.1 |
| 20260906055906 | 59 | 351 | 14.0 | 26.0 | 0.00 | 0.41 | 0.41 | 90 | 1002.0 |
| 20260906055407 | 59 | 328 | 14.0 | 26.0 | 0.00 | 0.41 | 0.41 | 91 | 1002.1 |
| 20260906054908 | 59 | 344 | 14.0 | 31.0 | 0.00 | 0.41 | 0.41 | 90 | 1002.1 |
| 20260906052906 | 59 | 344 | 16.0 | 30.0 | 0.00 | 0.41 | 0.41 | 91 | 1002.4 |
| 20260906052407 | 59 | 348 | 14.0 | 25.0 | 0.00 | 0.41 | 0.41 | 91 | 1002.5 |
| 20260906051907 | 59 | 346 | 17.0 | 44.0 | 0.00 | 0.41 | 0.41 | 91 | 1002.5 |
| 20260906051406 | 59 | 358 | 17.0 | 35.0 | 0.00 | 0.41 | 0.41 | 90 | 1002.4 |
| 20260906050906 | 59 | 338 | 18.0 | 35.0 | 0.00 | 0.41 | 0.41 | 90 | 1002.5 |
| 20260906050406 | 59 | 341 | 17.0 | 33.0 | 0.00 | 0.41 | 0.41 | 90 | 1002.5 |
| 20260906045906 | 59 | 357 | 16.0 | 29.0 | 0.00 | 0.41 | 0.41 | 90 | 1002.4 |
| 20260906045407 | 59 | 3 | 17.0 | 31.0 | 0.00 | 0.41 | 0.41 | 90 | 1002.4 |
| 20260906044407 | 59 | 341 | 17.0 | 35.0 | 0.00 | 0.41 | 0.41 | 90 | 1002.3 |
| 20260906043907 | 59 | 349 | 19.0 | 30.0 | 0.00 | 0.41 | 0.41 | 90 | 1002.4 |
| 20260906043406 | 59 | 355 | 21.0 | 36.0 | 0.00 | 0.41 | 0.41 | 90 | 1002.3 |
| 20260906042906 | 59 | 354 | 19.0 | 38.0 | 0.00 | 0.41 | 0.41 | 90 | 1002.4 |
| 20260906041907 | 59 | 350 | 18.0 | 35.0 | 0.00 | 0.41 | 0.41 | 90 | 1002.5 |
| 20260906041406 | 59 | 346 | 17.0 | 30.0 | 0.00 | 0.41 | 0.41 | 90 | 1002.6 |
| 20260906040907 | 59 | 339 | 20.0 | 35.0 | 0.00 | 0.41 | 0.41 | 91 | 1002.6 |
| 20260906040406 | 59 | 353 | 20.0 | 36.0 | 0.00 | 0.41 | 0.41 | 91 | 1002.6 |
| 20260906035906 | 59 | 336 | 16.0 | 30.0 | 0.00 | 0.41 | 0.41 | 91 | 1002.7 |
| 20260906035406 | 59 | 353 | 18.0 | 37.0 | 0.00 | 0.41 | 0.41 | 91 | 1002.7 |
| 20260906034907 | 59 | 346 | 20.0 | 33.0 | 0.00 | 0.41 | 0.41 | 91 | 1002.9 |
| 20260906034406 | 58 | 349 | 20.0 | 32.0 | 0.01 | 0.41 | 0.41 | 91 | 1003.0 |
| 20260906033906 | 58 | 336 | 17.0 | 35.0 | 0.02 | 0.41 | 0.41 | 91 | 1003.1 |
| 20260906033406 | 58 | 346 | 17.0 | 35.0 | 0.02 | 0.41 | 0.41 | 91 | 1003.0 |
| 20260906032907 | 58 | 348 | 20.0 | 35.0 | 0.02 | 0.41 | 0.41 | 91 | 1003.3 |
| 20260906032407 | 58 | 351 | 20.0 | 36.0 | 0.02 | 0.41 | 0.41 | 91 | 1003.2 |
| 20260906031906 | 58 | 341 | 21.0 | 35.0 | 0.03 | 0.41 | 0.41 | 91 | 1003.1 |
| 20260906031406 | 58 | 354 | 20.0 | 32.0 | 0.04 | 0.41 | 0.41 | 91 | 1003.2 |
| 20260906030907 | 58 | 352 | 20.0 | 37.0 | 0.06 | 0.41 | 0.41 | 91 | 1003.4 |
| 20260906025907 | 58 | 343 | 16.0 | 29.0 | 0.07 | 0.41 | 0.41 | 90 | 1003.4 |
| 20260906024906 | 58 | 335 | 18.0 | 32.0 | 0.07 | 0.41 | 0.41 | 90 | 1003.4 |
| 20260906024407 | 57 | 348 | 17.0 | 35.0 | 0.08 | 0.40 | 0.40 | 90 | 1003.5 |
| 20260906023906 | 57 | 358 | 16.0 | 40.0 | 0.09 | 0.39 | 0.39 | 90 | 1003.7 |
| 20260906023407 | 57 | 350 | 15.0 | 28.0 | 0.09 | 0.39 | 0.39 | 90 | 1003.6 |
| 20260906022906 | 57 | 344 | 18.0 | 30.0 | 0.10 | 0.39 | 0.39 | 90 | 1003.5 |
| 20260906022406 | 57 | 354 | 19.0 | 30.0 | 0.10 | 0.39 | 0.39 | 90 | 1003.6 |
| 20260906021907 | 57 | 344 | 17.0 | 28.0 | 0.09 | 0.38 | 0.38 | 90 | 1003.5 |
| 20260906021406 | 57 | 336 | 20.0 | 36.0 | 0.09 | 0.37 | 0.37 | 90 | 1003.6 |
| 20260906020906 | 57 | 348 | 17.0 | 29.0 | 0.06 | 0.35 | 0.35 | 89 | 1003.8 |
| 20260906020407 | 57 | 347 | 16.0 | 33.0 | 0.06 | 0.34 | 0.34 | 89 | 1003.9 |
| 20260906015407 | 57 | 351 | 17.0 | 35.0 | 0.06 | 0.34 | 0.34 | 89 | 1004.1 |
| 20260906013407 | 56 | 358 | 14.0 | 38.0 | 0.03 | 0.30 | 0.30 | 88 | 1004.8 |
| 20260906012407 | 56 | 348 | 13.0 | 31.0 | 0.05 | 0.28 | 0.28 | 87 | 1005.0 |
| 20260906011906 | 56 | 341 | 17.0 | 29.0 | 0.05 | 0.28 | 0.28 | 88 | 1005.5 |
| 20260906011407 | 56 | 355 | 18.0 | 35.0 | 0.06 | 0.28 | 0.28 | 88 | 1005.6 |
| 20260906010908 | 56 | 350 | 17.0 | 31.0 | 0.06 | 0.28 | 0.28 | 89 | 1005.7 |
| 20260906005907 | 56 | 357 | 13.0 | 21.0 | 0.08 | 0.28 | 0.28 | 89 | 1005.9 |
| 20260906004407 | 56 | 351 | 13.0 | 22.0 | 0.09 | 0.28 | 0.28 | 90 | 1006.4 |
| 20260906003907 | 56 | 348 | 13.0 | 26.0 | 0.09 | 0.27 | 0.27 | 90 | 1006.3 |
| 20260906003407 | 56 | 349 | 13.0 | 21.0 | 0.09 | 0.27 | 0.27 | 90 | 1006.5 |
| 20260906002906 | 56 | 344 | 18.0 | 28.0 | 0.09 | 0.25 | 0.25 | 90 | 1006.6 |
| 20260906002408 | 56 | 356 | 12.0 | 21.0 | 0.08 | 0.24 | 0.24 | 90 | 1006.8 |
| 20260906001907 | 56 | 347 | 8.0 | 16.0 | 0.09 | 0.24 | 0.24 | 90 | 1007.0 |
| 20260906001408 | 56 | 341 | 11.0 | 20.0 | 0.09 | 0.23 | 0.23 | 90 | 1007.4 |
| 20260906000907 | 56 | 355 | 9.0 | 16.0 | 0.09 | 0.22 | 0.22 | 90 | 1007.7 |
| 20260906000407 | 56 | 350 | 10.0 | 15.0 | 0.09 | 0.20 | 0.20 | 90 | 1007.6 |
| 20260905235908 | 56 | 352 | 10.0 | 22.0 | 0.09 | 0.20 | 0.20 | 90 | 1007.3 |
| 20260905235407 | 56 | 0 | 10.0 | 20.0 | 0.08 | 0.20 | 0.20 | 90 | 1007.3 |
| 20260905234907 | 56 | 342 | 9.0 | 18.0 | 0.07 | 0.19 | 0.19 | 90 | 1007.6 |
| 20260905234406 | 56 | 351 | 9.0 | 15.0 | 0.07 | 0.19 | 0.19 | 90 | 1008.0 |
| 20260905233906 | 56 | 348 | 9.0 | 20.0 | 0.06 | 0.18 | 0.18 | 90 | 1008.4 |
| 20260905233407 | 56 | 350 | 11.0 | 24.0 | 0.06 | 0.17 | 0.17 | 90 | 1008.6 |
| 20260905232907 | 56 | 343 | 12.0 | 28.0 | 0.05 | 0.17 | 0.17 | 90 | 1008.8 |
| 20260905232407 | 56 | 351 | 11.0 | 26.0 | 0.04 | 0.16 | 0.16 | 90 | 1008.7 |
| 20260905231906 | 57 | 333 | 10.0 | 21.0 | 0.03 | 0.15 | 0.15 | 90 | 1008.8 |
| 20260905230907 | 57 | 346 | 11.0 | 20.0 | 0.01 | 0.13 | 0.13 | 89 | 1009.0 |
| 20260905225907 | 57 | 348 | 7.0 | 18.0 | 0.00 | 0.12 | 0.12 | 89 | 1008.9 |
| 20260905225407 | 57 | 351 | 9.0 | 18.0 | 0.00 | 0.12 | 0.12 | 90 | 1009.0 |
| 20260905224406 | 57 | 353 | 9.0 | 20.0 | 0.00 | 0.12 | 0.12 | 90 | 1009.1 |
| 20260905223907 | 56 | 341 | 9.0 | 20.0 | 0.00 | 0.12 | 0.12 | 90 | 1009.1 |
| 20260905223408 | 56 | 343 | 10.0 | 22.0 | 0.01 | 0.12 | 0.12 | 90 | 1009.1 |
| 20260905222906 | 56 | 341 | 10.0 | 21.0 | 0.01 | 0.12 | 0.12 | 90 | 1009.1 |
| 20260905222406 | 56 | 352 | 12.0 | 18.0 | 0.01 | 0.12 | 0.12 | 90 | 1009.2 |
| 20260905221906 | 56 | 351 | 10.0 | 20.0 | 0.01 | 0.12 | 0.12 | 90 | 1009.3 |
| 20260905221407 | 56 | 333 | 9.0 | 17.0 | 0.01 | 0.12 | 0.12 | 90 | 1009.3 |
| 20260905220907 | 56 | 345 | 9.0 | 15.0 | 0.01 | 0.12 | 0.12 | 90 | 1009.4 |
| 20260905220407 | 56 | 334 | 9.0 | 18.0 | 0.01 | 0.12 | 0.12 | 90 | 1009.5 |
| 20260905215907 | 56 | 348 | 7.0 | 18.0 | 0.01 | 0.12 | 0.12 | 90 | 1009.6 |
| 20260905215407 | 56 | 352 | 8.0 | 15.0 | 0.01 | 0.12 | 0.12 | 90 | 1009.7 |
| 20260905214907 | 56 | 336 | 10.0 | 20.0 | 0.02 | 0.12 | 0.12 | 90 | 1009.7 |
| 20260905214406 | 56 | 343 | 8.0 | 14.0 | 0.02 | 0.12 | 0.12 | 90 | 1009.7 |
| 20260905213907 | 56 | 346 | 8.0 | 18.0 | 0.03 | 0.12 | 0.12 | 90 | 1009.9 |
| 20260905213407 | 56 | 346 | 10.0 | 18.0 | 0.02 | 0.11 | 0.11 | 90 | 1010.0 |
| 20260905212907 | 56 | 326 | 9.0 | 15.0 | 0.02 | 0.11 | 0.11 | 90 | 1010.1 |
| 20260905211911 | 56 | 342 | 12.0 | 21.0 | 0.03 | 0.11 | 0.11 | 90 | 1010.2 |
| 20260905211407 | 56 | 356 | 8.0 | 17.0 | 0.03 | 0.11 | 0.11 | 90 | 1010.3 |
| 20260905210906 | 56 | 348 | 10.0 | 20.0 | 0.04 | 0.11 | 0.11 | 90 | 1010.3 |
| 20260905210406 | 56 | 349 | 10.0 | 20.0 | 0.05 | 0.11 | 0.11 | 90 | 1010.4 |
| 20260905205907 | 56 | 349 | 12.0 | 18.0 | 0.05 | 0.11 | 0.11 | 90 | 1010.5 |
| 20260905205407 | 56 | 351 | 12.0 | 18.0 | 0.05 | 0.11 | 0.11 | 90 | 1010.7 |
| 20260905204907 | 56 | 346 | 10.0 | 20.0 | 0.05 | 0.10 | 0.10 | 90 | 1010.7 |
| 20260905204406 | 56 | 346 | 10.0 | 17.0 | 0.04 | 0.09 | 0.09 | 90 | 1010.8 |
| 20260905203907 | 56 | 354 | 12.0 | 20.0 | 0.04 | 0.09 | 0.09 | 90 | 1010.9 |
| 20260905203406 | 56 | 348 | 12.0 | 21.0 | 0.04 | 0.09 | 0.09 | 90 | 1010.9 |
| 20260905202907 | 56 | 345 | 10.0 | 16.0 | 0.05 | 0.09 | 0.09 | 90 | 1011.0 |
| 20260905202406 | 56 | 341 | 9.0 | 18.0 | 0.06 | 0.09 | 0.09 | 90 | 1011.0 |
| 20260905201907 | 56 | 348 | 12.0 | 18.0 | 0.05 | 0.08 | 0.08 | 90 | 1011.0 |
| 20260905201407 | 56 | 340 | 9.0 | 21.0 | 0.05 | 0.08 | 0.08 | 90 | 1010.9 |
| 20260905200907 | 56 | 320 | 10.0 | 18.0 | 0.04 | 0.07 | 0.07 | 90 | 1010.9 |
| 20260905200407 | 56 | 343 | 12.0 | 21.0 | 0.06 | 0.06 | 0.06 | 90 | 1011.0 |
| 20260905195907 | 56 | 349 | 11.0 | 18.0 | 0.06 | 0.06 | 0.06 | 90 | 1011.0 |
| 20260905195406 | 56 | 332 | 10.0 | 20.0 | 0.06 | 0.06 | 0.06 | 90 | 1011.0 |
| 20260905194907 | 56 | 343 | 9.0 | 15.0 | 0.06 | 0.06 | 0.06 | 90 | 1011.1 |
| 20260905194407 | 56 | 347 | 9.0 | 17.0 | 0.06 | 0.06 | 0.06 | 90 | 1011.0 |
| 20260905193907 | 56 | 335 | 7.0 | 18.0 | 0.05 | 0.05 | 0.05 | 90 | 1011.0 |
| 20260905193406 | 56 | 348 | 10.0 | 20.0 | 0.05 | 0.05 | 0.05 | 90 | 1011.1 |
| 20260905190907 | 56 | 343 | 11.0 | 18.0 | 0.03 | 0.03 | 0.03 | 90 | 1011.0 |
| 20260905190406 | 56 | 340 | 9.0 | 16.0 | 0.00 | 0.00 | 0.00 | 90 | 1011.0 |
| 20260905185906 | 56 | 346 | 8.0 | 17.0 | 0.00 | 0.00 | 0.00 | 90 | 1011.1 |
| 20260905185407 | 56 | 351 | 9.0 | 20.0 | 0.00 | 0.00 | 0.00 | 90 | 1011.0 |
| 20260905184406 | 56 | 348 | 8.0 | 15.0 | 0.00 | 0.00 | 0.00 | 90 | 1011.2 |
| 20260905183406 | 56 | 352 | 7.0 | 15.0 | 0.00 | 0.00 | 0.00 | 89 | 1011.2 |
| 20260905182906 | 56 | 335 | 6.0 | 12.0 | 0.00 | 0.00 | 0.00 | 89 | 1011.2 |
| 20260905182406 | 56 | 345 | 7.0 | 13.0 | 0.00 | 0.00 | 0.00 | 89 | 1011.2 |
| 20260905180906 | 56 | 345 | 5.0 | 12.0 | 0.00 | 0.00 | 0.00 | 89 | 1011.1 |
| 20260905180407 | 56 | 342 | 5.0 | 12.0 | 0.00 | 0.00 | 0.00 | 89 | 1011.0 |
| 20260905175907 | 56 | 340 | 4.0 | 16.0 | 0.00 | 0.00 | 0.00 | 89 | 1011.0 |
| 20260905175406 | 56 | 350 | 9.0 | 14.0 | 0.00 | 0.00 | 0.00 | 89 | 1011.2 |
| 20260905174406 | 56 | 340 | 7.0 | 16.0 | 0.00 | 0.00 | 0.00 | 89 | 1011.2 |
| 20260905173907 | 56 | 351 | 8.0 | 14.0 | 0.00 | 0.00 | 0.00 | 89 | 1011.2 |
| 20260905173407 | 56 | 348 | 9.0 | 13.0 | 0.00 | 0.00 | 0.00 | 89 | 1011.1 |
| 20260905172906 | 56 | 351 | 8.0 | 15.0 | 0.00 | 0.00 | 0.00 | 89 | 1011.0 |
| 20260905172406 | 56 | 340 | 9.0 | 14.0 | 0.00 | 0.00 | 0.00 | 89 | 1011.0 |
| 20260905171907 | 56 | 338 | 10.0 | 20.0 | 0.00 | 0.00 | 0.00 | 89 | 1011.0 |
| 20260905170906 | 56 | 345 | 9.0 | 18.0 | 0.00 | 0.00 | 0.00 | 89 | 1011.1 |
| 20260905170407 | 56 | 347 | 8.0 | 14.0 | 0.00 | 0.00 | 0.00 | 89 | 1011.1 |
| 20260905165906 | 57 | 339 | 6.0 | 16.0 | 0.00 | 0.00 | 0.00 | 89 | 1011.2 |
| 20260905165406 | 57 | 350 | 9.0 | 20.0 | 0.00 | 0.00 | 0.00 | 89 | 1011.2 |
| 20260905164906 | 56 | 342 | 9.0 | 15.0 | 0.00 | 0.00 | 0.00 | 89 | 1011.1 |
| 20260905163906 | 56 | 329 | 7.0 | 17.0 | 0.00 | 0.00 | 0.00 | 89 | 1011.0 |
| 20260905163406 | 56 | 345 | 10.0 | 20.0 | 0.00 | 0.00 | 0.00 | 89 | 1010.8 |
| 20260905162906 | 56 | 335 | 5.0 | 16.0 | 0.00 | 0.00 | 0.00 | 89 | 1010.7 |
| 20260905162406 | 55 | 347 | 5.0 | 14.0 | 0.00 | 0.00 | 0.00 | 89 | 1010.7 |
| 20260905161906 | 55 | 326 | 5.0 | 13.0 | 0.00 | 0.00 | 0.00 | 89 | 1010.6 |
| 20260905160907 | 56 | 330 | 5.0 | 17.0 | 0.00 | 0.00 | 0.00 | 89 | 1010.5 |
| 20260905160406 | 56 | 344 | 10.0 | 20.0 | 0.00 | 0.00 | 0.00 | 89 | 1010.4 |
| 20260905155906 | 56 | 341 | 12.0 | 20.0 | 0.00 | 0.00 | 0.00 | 89 | 1010.5 |
| 20260905154907 | 56 | 351 | 8.0 | 14.0 | 0.00 | 0.00 | 0.00 | 89 | 1010.6 |
| 20260905154406 | 56 | 343 | 6.0 | 13.0 | 0.00 | 0.00 | 0.00 | 89 | 1010.6 |
| 20260905153907 | 56 | 342 | 5.0 | 14.0 | 0.00 | 0.00 | 0.00 | 89 | 1010.7 |
| 20260905153406 | 56 | 347 | 7.0 | 14.0 | 0.00 | 0.00 | 0.00 | 89 | 1010.7 |
| 20260905152910 | 56 | 338 | 6.0 | 16.0 | 0.00 | 0.00 | 0.00 | 89 | 1010.6 |
| 20260905152407 | 56 | 285 | 7.0 | 17.0 | 0.00 | 0.00 | 0.00 | 89 | 1010.6 |
| 20260905151907 | 56 | 319 | 6.0 | 15.0 | 0.00 | 0.00 | 0.00 | 89 | 1010.6 |
| 20260905150906 | 56 | 331 | 4.0 | 14.0 | 0.00 | 0.00 | 0.00 | 89 | 1010.6 |
| 20260905150407 | 56 | 301 | 6.0 | 14.0 | 0.00 | 0.00 | 0.00 | 89 | 1010.6 |
| 20260905145907 | 56 | 317 | 4.0 | 15.0 | 0.00 | 0.00 | 0.00 | 89 | 1010.6 |
| 20260905145406 | 56 | 335 | 5.0 | 16.0 | 0.00 | 0.00 | 0.00 | 88 | 1010.6 |
| 20260905144906 | 56 | 242 | 5.0 | 14.0 | 0.00 | 0.00 | 0.00 | 88 | 1010.6 |
| 20260905144407 | 56 | 317 | 6.0 | 13.0 | 0.00 | 0.00 | 0.00 | 88 | 1010.5 |
| 20260905143907 | 56 | 318 | 6.0 | 13.0 | 0.00 | 0.00 | 0.00 | 88 | 1010.6 |
| 20260905143407 | 56 | 294 | 6.0 | 15.0 | 0.00 | 0.00 | 0.00 | 88 | 1010.8 |
| 20260905142907 | 56 | 281 | 7.0 | 14.0 | 0.00 | 0.00 | 0.00 | 88 | 1010.8 |
| 20260905142407 | 56 | 307 | 5.0 | 12.0 | 0.00 | 0.00 | 0.00 | 88 | 1010.9 |
| 20260905141906 | 56 | 321 | 6.0 | 15.0 | 0.00 | 0.00 | 0.00 | 88 | 1011.0 |
| 20260905141407 | 56 | 299 | 6.0 | 15.0 | 0.00 | 0.00 | 0.00 | 88 | 1011.0 |
| 20260905140907 | 56 | 318 | 5.0 | 15.0 | 0.00 | 0.00 | 0.00 | 88 | 1011.0 |
| 20260905140407 | 56 | 325 | 4.0 | 15.0 | 0.00 | 0.00 | 0.00 | 88 | 1011.0 |
| 20260905135906 | 56 | 307 | 6.0 | 16.0 | 0.00 | 0.00 | 0.00 | 88 | 1010.9 |
| 20260905135406 | 56 | 343 | 7.0 | 22.0 | 0.00 | 0.00 | 0.00 | 88 | 1011.1 |
| 20260905134906 | 56 | 330 | 7.0 | 16.0 | 0.00 | 0.00 | 0.00 | 88 | 1011.1 |
| 20260905134406 | 56 | 320 | 5.0 | 13.0 | 0.00 | 0.00 | 0.00 | 88 | 1011.3 |
| 20260905133906 | 56 | 335 | 10.0 | 21.0 | 0.00 | 0.00 | 0.00 | 88 | 1011.4 |
| 20260905132906 | 56 | 320 | 8.0 | 22.0 | 0.00 | 0.00 | 0.00 | 87 | 1011.7 |
| 20260905132407 | 56 | 333 | 10.0 | 18.0 | 0.00 | 0.00 | 0.00 | 87 | 1011.8 |
| 20260905131906 | 56 | 338 | 8.0 | 20.0 | 0.00 | 0.00 | 0.00 | 87 | 1011.8 |
| 20260905130907 | 56 | 346 | 10.0 | 18.0 | 0.00 | 0.00 | 0.00 | 87 | 1011.9 |
| 20260905130406 | 56 | 336 | 11.0 | 20.0 | 0.00 | 0.00 | 0.00 | 87 | 1012.0 |
| 20260905125907 | 56 | 343 | 9.0 | 26.0 | 0.00 | 0.00 | 0.00 | 87 | 1011.9 |
| 20260905125406 | 56 | 344 | 11.0 | 23.0 | 0.00 | 0.00 | 0.00 | 87 | 1011.9 |
| 20260905124906 | 56 | 350 | 14.0 | 25.0 | 0.00 | 0.00 | 0.00 | 87 | 1011.9 |
| 20260905124406 | 56 | 324 | 9.0 | 20.0 | 0.00 | 0.00 | 0.00 | 87 | 1011.9 |
| 20260905123906 | 56 | 305 | 7.0 | 23.0 | 0.00 | 0.00 | 0.00 | 87 | 1012.0 |
| 20260905123406 | 56 | 334 | 7.0 | 16.0 | 0.00 | 0.00 | 0.00 | 87 | 1012.0 |
| 20260905122906 | 56 | 287 | 8.0 | 23.0 | 0.00 | 0.00 | 0.00 | 87 | 1012.0 |
| 20260905122406 | 56 | 327 | 7.0 | 20.0 | 0.00 | 0.00 | 0.00 | 87 | 1011.9 |
| 20260905120907 | 56 | 287 | 9.0 | 23.0 | 0.00 | 0.00 | 0.00 | 87 | 1012.0 |
| 20260905120406 | 56 | 337 | 10.0 | 23.0 | 0.00 | 0.00 | 0.00 | 87 | 1012.1 |
| 20260905115908 | 56 | 303 | 12.0 | 22.0 | 0.00 | 0.00 | 0.00 | 87 | 1012.2 |
| 20260905115406 | 56 | 334 | 13.0 | 25.0 | 0.00 | 0.00 | 0.00 | 87 | 1012.1 |
| 20260905114906 | 56 | 324 | 10.0 | 25.0 | 0.00 | 0.00 | 0.00 | 87 | 1012.1 |
| 20260905113907 | 56 | 335 | 7.0 | 20.0 | 0.00 | 0.00 | 0.00 | 86 | 1012.1 |
| 20260905113406 | 56 | 247 | 11.0 | 26.0 | 0.00 | 0.00 | 0.00 | 86 | 1012.1 |